Погода в Кюбяинде

Россия / Республика Саха (Якутия)     64°37′25″N   120°10′22″E
темп.,
°C
ветер,
м/с
пор.,
м/с
влажн.,
%
обл.,
%
осадки,
мм/ч
давл.,
гПа
погр.,
м
27 февраля, сб
сб2700:00−32в359899 0.0 1030173
03:00−31в3598100 0.1 1029200
06:00−33всв3599100 0.1 102992
09:00−33в3698100 0.1 1029149
12:00−30в3596100 0.0 1028278
15:00−28в2393100 0.0 1026350
18:00−28всв2396100 0.0 1026109
21:00−28всв1299100 0.3 1025180
28 февраля, вс
вс2800:00−29ссв1299100 0.5 102490
03:00−29ссз1199100 0.8 102419
06:00−30зсз2398100 0.2 102481
09:00−30зсз2497100 0.3 1024204
12:00−28зсз3692100 0.1 1026454
15:00−26з4691100 0.1 1026585
18:00−27з4792100 0.1 1028369
21:00−28з4992100 0.1 1028336
1 марта, пн
пн100:00−30з3792100 0.0 1029207
03:00−32з3692100 0.0 1029154
06:00−33з3691100 0.0 1029148
09:00−34з3692100 0.0 1029154
12:00−31з3588100 0.0 1029303
15:00−30з3589100 0.0 1028338
18:00−32з2393100 0.0 102839
21:00−35з239495 0.0 102819
2 марта, вт
вт200:00−37з229587 0.0 102919
03:00−38зсз119576 0.0 102819
06:00−38зсз119665 0.0 102819
09:00−39зсз129660 0.0 102818
12:00−33ссз129063 0.0 1028232
15:00−31ссз228675 0.0 1027357
18:00−34с129490 0.0 102819
21:00−37ссз129587 0.0 102919
3 марта, ср
ср300:00−36ссз129795 0.0 102819
03:00−35ссз229897 0.1 102819
06:00−35ссз2298100 0.0 102820
09:00−34ссз2497100 0.1 1028175
12:00−32ссз2494100 0.1 1027323
15:00−30сз3593100 0.2 1026429
18:00−31сз3696100 0.1 1026395
21:00−31сз3797100 0.3 1025374